Year,Month,Day,Hour,Minute,Value (Times are PST for temperature in C)
2023,03,30,00,00,6.60
2023,03,30,00,01,6.60
2023,03,30,00,02,6.60
2023,03,30,00,03,6.60
2023,03,30,00,04,6.60
2023,03,30,00,05,6.60
2023,03,30,00,06,6.60
2023,03,30,00,07,6.50
2023,03,30,00,08,6.50
2023,03,30,00,09,6.40
2023,03,30,00,10,6.40
2023,03,30,00,11,6.40
2023,03,30,00,12,6.40
2023,03,30,00,13,6.40
2023,03,30,00,14,6.30
2023,03,30,00,15,6.30
2023,03,30,00,16,6.30
2023,03,30,00,17,6.30
2023,03,30,00,18,6.30
2023,03,30,00,19,6.30
2023,03,30,00,20,6.20
2023,03,30,00,21,6.20
2023,03,30,00,22,6.20
2023,03,30,00,23,6.20
2023,03,30,00,24,6.20
2023,03,30,00,25,6.20
2023,03,30,00,26,6.20
2023,03,30,00,27,6.20
2023,03,30,00,28,6.20
2023,03,30,00,29,6.20
2023,03,30,00,30,6.20
2023,03,30,00,31,6.20
2023,03,30,00,32,6.20
2023,03,30,00,33,6.20
2023,03,30,00,34,6.20
2023,03,30,00,35,6.20
2023,03,30,00,36,6.20
2023,03,30,00,37,6.20
2023,03,30,00,38,6.20
2023,03,30,00,39,6.20
2023,03,30,00,40,6.20
2023,03,30,00,41,6.20
2023,03,30,00,42,6.20
2023,03,30,00,43,6.20
2023,03,30,00,44,6.20
2023,03,30,00,45,6.10
2023,03,30,00,46,6.10
2023,03,30,00,47,6.10
2023,03,30,00,48,6.10
2023,03,30,00,49,6.10
2023,03,30,00,50,6.10
2023,03,30,00,51,6.10
2023,03,30,00,52,6.00
2023,03,30,00,53,6.00
2023,03,30,00,54,6.00
2023,03,30,00,55,6.00
2023,03,30,00,56,6.00
2023,03,30,00,57,6.00
2023,03,30,00,58,6.00
2023,03,30,00,59,5.90
2023,03,30,01,00,5.90
2023,03,30,01,01,5.90
2023,03,30,01,02,5.90
2023,03,30,01,03,5.80
2023,03,30,01,04,5.80
2023,03,30,01,05,5.80
2023,03,30,01,06,5.80
2023,03,30,01,07,5.80
2023,03,30,01,08,5.80
2023,03,30,01,09,5.80
2023,03,30,01,10,5.80
2023,03,30,01,11,5.80
2023,03,30,01,12,5.80
2023,03,30,01,13,5.80
2023,03,30,01,14,5.80
2023,03,30,01,15,5.80
2023,03,30,01,16,5.80
2023,03,30,01,17,5.70
2023,03,30,01,18,5.70
2023,03,30,01,19,5.70
2023,03,30,01,20,5.70
2023,03,30,01,21,5.60
2023,03,30,01,22,5.60
2023,03,30,01,23,5.60
2023,03,30,01,24,5.50
2023,03,30,01,25,5.50
2023,03,30,01,26,5.40
2023,03,30,01,27,5.40
2023,03,30,01,28,5.40
2023,03,30,01,29,5.40
2023,03,30,01,30,5.40
2023,03,30,01,31,5.40
2023,03,30,01,32,5.40
2023,03,30,01,33,5.40
2023,03,30,01,34,5.40
2023,03,30,01,35,5.40
2023,03,30,01,36,5.40
2023,03,30,01,37,5.50
2023,03,30,01,38,5.50
2023,03,30,01,39,5.40
2023,03,30,01,40,5.40
2023,03,30,01,41,5.40
2023,03,30,01,42,5.40
2023,03,30,01,43,5.40
2023,03,30,01,44,5.40
2023,03,30,01,45,5.40
2023,03,30,01,46,5.40
2023,03,30,01,47,5.40
2023,03,30,01,48,5.30
2023,03,30,01,49,5.30
2023,03,30,01,50,5.30
2023,03,30,01,51,5.30
2023,03,30,01,52,5.30
2023,03,30,01,53,5.30
2023,03,30,01,54,5.20
2023,03,30,01,55,5.20
2023,03,30,01,56,5.20
2023,03,30,01,57,5.20
2023,03,30,01,58,5.20
2023,03,30,01,59,5.20
2023,03,30,02,00,5.20
2023,03,30,02,01,5.20
2023,03,30,02,02,5.20
2023,03,30,02,03,5.20
2023,03,30,02,04,5.20
2023,03,30,02,05,5.20
2023,03,30,02,06,5.20
2023,03,30,02,07,5.20
2023,03,30,02,08,5.20
2023,03,30,02,09,5.20
2023,03,30,02,10,5.10
2023,03,30,02,11,5.10
2023,03,30,02,12,5.10
2023,03,30,02,13,5.10
2023,03,30,02,14,5.10
2023,03,30,02,15,5.10
2023,03,30,02,16,5.10
2023,03,30,02,17,5.10
2023,03,30,02,18,5.10
2023,03,30,02,19,5.10
2023,03,30,02,20,5.10
2023,03,30,02,21,5.10
2023,03,30,02,22,5.10
2023,03,30,02,23,5.10
2023,03,30,02,24,5.10
2023,03,30,02,25,5.00
2023,03,30,02,26,5.00
2023,03,30,02,27,5.00
2023,03,30,02,28,5.00
2023,03,30,02,29,5.00
2023,03,30,02,30,5.00
2023,03,30,02,31,5.00
2023,03,30,02,32,5.00
2023,03,30,02,33,5.00
2023,03,30,02,34,5.00
2023,03,30,02,35,4.90
2023,03,30,02,36,4.90
2023,03,30,02,37,4.90
2023,03,30,02,38,4.90
2023,03,30,02,39,4.90
2023,03,30,02,40,4.90
2023,03,30,02,41,4.80
2023,03,30,02,42,4.80
2023,03,30,02,43,4.80
2023,03,30,02,44,4.80
2023,03,30,02,45,4.80
2023,03,30,02,46,4.80
2023,03,30,02,47,4.80
2023,03,30,02,48,4.80
2023,03,30,02,49,4.70
2023,03,30,02,50,4.70
2023,03,30,02,51,4.70
2023,03,30,02,52,4.70
2023,03,30,02,53,4.70
2023,03,30,02,54,4.70
2023,03,30,02,55,4.70
2023,03,30,02,56,4.70
2023,03,30,02,57,4.70
2023,03,30,02,58,4.70
2023,03,30,02,59,4.70
2023,03,30,03,00,4.70
2023,03,30,03,01,4.70
2023,03,30,03,02,4.70
2023,03,30,03,03,4.80
2023,03,30,03,04,4.80
2023,03,30,03,05,4.80
2023,03,30,03,06,4.80
2023,03,30,03,07,4.80
2023,03,30,03,08,4.80
2023,03,30,03,09,4.80
2023,03,30,03,10,4.80
2023,03,30,03,11,4.80
2023,03,30,03,12,4.80
2023,03,30,03,13,4.80
2023,03,30,03,14,4.80
2023,03,30,03,15,4.80
2023,03,30,03,16,4.80
2023,03,30,03,17,4.80
2023,03,30,03,18,4.80
2023,03,30,03,19,4.80
2023,03,30,03,20,4.80
2023,03,30,03,21,4.80
2023,03,30,03,22,4.80
2023,03,30,03,23,4.80
2023,03,30,03,24,4.80
2023,03,30,03,25,4.70
2023,03,30,03,26,4.70
2023,03,30,03,27,4.70
2023,03,30,03,28,4.70
2023,03,30,03,29,4.70
2023,03,30,03,30,4.60
2023,03,30,03,31,4.60
2023,03,30,03,32,4.60
2023,03,30,03,33,4.60
2023,03,30,03,34,4.60
2023,03,30,03,35,4.60
2023,03,30,03,36,4.60
2023,03,30,03,37,4.60
2023,03,30,03,38,4.60
2023,03,30,03,39,4.60
2023,03,30,03,40,4.50
2023,03,30,03,41,4.50
2023,03,30,03,42,4.50
2023,03,30,03,43,4.60
2023,03,30,03,44,4.60
2023,03,30,03,45,4.60
2023,03,30,03,46,4.60
2023,03,30,03,47,4.60
2023,03,30,03,48,4.60
2023,03,30,03,49,4.60
2023,03,30,03,50,4.60
2023,03,30,03,51,4.60
2023,03,30,03,52,4.60
2023,03,30,03,53,4.60
2023,03,30,03,54,4.60
2023,03,30,03,55,4.60
2023,03,30,03,56,4.60
2023,03,30,03,57,4.60
2023,03,30,03,58,4.60
2023,03,30,03,59,4.60
2023,03,30,04,00,4.60
2023,03,30,04,01,4.60
2023,03,30,04,02,4.60
2023,03,30,04,03,4.60
2023,03,30,04,04,4.50
2023,03,30,04,05,4.50
2023,03,30,04,06,4.50
2023,03,30,04,07,4.50
2023,03,30,04,08,4.60
2023,03,30,04,09,4.60
2023,03,30,04,10,4.60
2023,03,30,04,11,4.60
2023,03,30,04,12,4.60
2023,03,30,04,13,4.70
2023,03,30,04,14,4.70
2023,03,30,04,15,4.70
2023,03,30,04,16,4.70
2023,03,30,04,17,4.60
2023,03,30,04,18,4.70
2023,03,30,04,19,4.70
2023,03,30,04,20,4.70
2023,03,30,04,21,4.80
2023,03,30,04,22,4.80
2023,03,30,04,23,4.80
2023,03,30,04,24,4.90
2023,03,30,04,25,4.90
2023,03,30,04,26,4.90
2023,03,30,04,27,4.90
2023,03,30,04,28,4.90
2023,03,30,04,29,4.90
2023,03,30,04,30,4.90
2023,03,30,04,31,4.80
2023,03,30,04,32,4.80
2023,03,30,04,33,4.80
2023,03,30,04,34,4.80
2023,03,30,04,35,4.70
2023,03,30,04,36,4.70
2023,03,30,04,37,4.70
2023,03,30,04,38,4.60
2023,03,30,04,39,4.60
2023,03,30,04,40,4.60
2023,03,30,04,41,4.50
2023,03,30,04,42,4.50
2023,03,30,04,43,4.40
2023,03,30,04,44,4.40
2023,03,30,04,45,4.30
2023,03,30,04,46,4.30
2023,03,30,04,47,4.30
2023,03,30,04,48,4.20
2023,03,30,04,49,4.20
2023,03,30,04,50,4.20
2023,03,30,04,51,4.10
2023,03,30,04,52,4.00
2023,03,30,04,53,4.00
2023,03,30,04,54,3.90
2023,03,30,04,55,3.80
2023,03,30,04,56,3.70
2023,03,30,04,57,3.70
2023,03,30,04,58,3.60
2023,03,30,04,59,3.60
2023,03,30,05,00,3.50
2023,03,30,05,01,3.50
2023,03,30,05,02,3.40
2023,03,30,05,03,3.40
2023,03,30,05,04,3.30
2023,03,30,05,05,3.30
2023,03,30,05,06,3.20
2023,03,30,05,07,3.20
2023,03,30,05,08,3.10
2023,03,30,05,09,3.10
2023,03,30,05,10,3.00
2023,03,30,05,11,3.00
2023,03,30,05,12,3.00
2023,03,30,05,13,2.90
2023,03,30,05,14,2.90
2023,03,30,05,15,2.90
2023,03,30,05,16,2.80
2023,03,30,05,17,2.80
2023,03,30,05,18,2.80
2023,03,30,05,19,2.80
2023,03,30,05,20,2.80
2023,03,30,05,21,2.80
2023,03,30,05,22,2.80
2023,03,30,05,23,2.80
2023,03,30,05,24,2.80
2023,03,30,05,25,2.80
2023,03,30,05,26,2.80
2023,03,30,05,27,2.80
2023,03,30,05,28,2.80
2023,03,30,05,29,2.80
2023,03,30,05,30,2.80
2023,03,30,05,31,2.70
2023,03,30,05,32,2.70
2023,03,30,05,33,2.70
2023,03,30,05,34,2.80
2023,03,30,05,35,2.80
2023,03,30,05,36,2.80
2023,03,30,05,37,2.80
2023,03,30,05,38,2.80
2023,03,30,05,39,2.80
2023,03,30,05,40,2.90
2023,03,30,05,41,2.90
2023,03,30,05,42,2.90
2023,03,30,05,43,2.90
2023,03,30,05,44,3.00
2023,03,30,05,45,3.00
2023,03,30,05,46,3.00
2023,03,30,05,47,3.10
2023,03,30,05,48,3.10
2023,03,30,05,49,3.10
2023,03,30,05,50,3.10
2023,03,30,05,51,3.20
2023,03,30,05,52,3.20
2023,03,30,05,53,3.20
2023,03,30,05,54,3.20
2023,03,30,05,55,3.20
2023,03,30,05,56,3.20
2023,03,30,05,57,3.20
2023,03,30,05,58,3.20
2023,03,30,05,59,3.20
2023,03,30,06,00,3.10
2023,03,30,06,01,3.10
2023,03,30,06,02,3.10
2023,03,30,06,03,3.10
2023,03,30,06,04,3.00
2023,03,30,06,05,3.00
2023,03,30,06,06,2.90
2023,03,30,06,07,2.90
2023,03,30,06,08,2.90
2023,03,30,06,09,2.80
2023,03,30,06,10,2.80
2023,03,30,06,11,2.80
2023,03,30,06,12,2.80
2023,03,30,06,13,2.70
2023,03,30,06,14,2.70
2023,03,30,06,15,2.70
2023,03,30,06,16,2.70
2023,03,30,06,17,2.60
2023,03,30,06,18,2.60
2023,03,30,06,19,2.60
2023,03,30,06,20,2.60
2023,03,30,06,21,2.60
2023,03,30,06,22,2.60
2023,03,30,06,23,2.60
2023,03,30,06,24,2.60
2023,03,30,06,25,2.60
2023,03,30,06,26,2.60
2023,03,30,06,27,2.50
2023,03,30,06,28,2.40
2023,03,30,06,29,2.30
2023,03,30,06,30,2.10
2023,03,30,06,31,2.00
2023,03,30,06,32,1.80
2023,03,30,06,33,1.70
2023,03,30,06,34,1.60
2023,03,30,06,35,1.50
2023,03,30,06,36,1.40
2023,03,30,06,37,1.30
2023,03,30,06,38,1.30
2023,03,30,06,39,1.30
2023,03,30,06,40,1.20
2023,03,30,06,41,1.20
2023,03,30,06,42,1.20
2023,03,30,06,43,1.20
2023,03,30,06,44,1.20
2023,03,30,06,45,1.20
2023,03,30,06,46,1.20
2023,03,30,06,47,1.20
2023,03,30,06,48,1.30
2023,03,30,06,49,1.30
2023,03,30,06,50,1.30
2023,03,30,06,51,1.30
2023,03,30,06,52,1.30
2023,03,30,06,53,1.30
2023,03,30,06,54,1.20
2023,03,30,06,55,1.20
2023,03,30,06,56,1.20
2023,03,30,06,57,1.20
2023,03,30,06,58,1.20
2023,03,30,06,59,1.20
2023,03,30,07,00,1.10
2023,03,30,07,01,1.10
2023,03,30,07,02,1.10
2023,03,30,07,03,1.10
2023,03,30,07,04,1.10
2023,03,30,07,05,1.00
2023,03,30,07,06,1.00
2023,03,30,07,07,1.00
2023,03,30,07,08,0.90
2023,03,30,07,09,0.90
2023,03,30,07,10,0.90
2023,03,30,07,11,0.90
2023,03,30,07,12,0.90
2023,03,30,07,13,0.80
2023,03,30,07,14,0.80
2023,03,30,07,15,0.80
2023,03,30,07,16,0.80
2023,03,30,07,17,0.80
2023,03,30,07,18,0.80
2023,03,30,07,19,0.80
2023,03,30,07,20,0.80
2023,03,30,07,21,0.80
2023,03,30,07,22,0.80
2023,03,30,07,23,0.80
2023,03,30,07,24,0.90
2023,03,30,07,25,0.90
2023,03,30,07,26,1.00
2023,03,30,07,27,1.00
2023,03,30,07,28,1.10
2023,03,30,07,29,1.10
2023,03,30,07,30,1.20
2023,03,30,07,31,1.20
2023,03,30,07,32,1.20
2023,03,30,07,33,1.30
2023,03,30,07,34,1.30
2023,03,30,07,35,1.30
2023,03,30,07,36,1.30
2023,03,30,07,37,1.30
2023,03,30,07,38,1.20
2023,03,30,07,39,1.20
2023,03,30,07,40,1.20
2023,03,30,07,41,1.20
2023,03,30,07,42,1.30
2023,03,30,07,43,1.30
2023,03,30,07,44,1.30
2023,03,30,07,45,1.30
2023,03,30,07,46,1.30
2023,03,30,07,47,1.40
2023,03,30,07,48,1.40
2023,03,30,07,49,1.40
2023,03,30,07,50,1.50
2023,03,30,07,51,1.50
2023,03,30,07,52,1.60
2023,03,30,07,53,1.60
2023,03,30,07,54,1.60
2023,03,30,07,55,1.70
2023,03,30,07,56,1.70
2023,03,30,07,57,1.80
2023,03,30,07,58,1.80
2023,03,30,07,59,1.90
2023,03,30,08,00,2.00
2023,03,30,08,01,2.10
2023,03,30,08,02,2.20
2023,03,30,08,03,2.20
2023,03,30,08,04,2.30
2023,03,30,08,05,2.30
2023,03,30,08,06,2.30
2023,03,30,08,07,2.30
2023,03,30,08,08,2.40
2023,03,30,08,09,2.40
2023,03,30,08,10,2.40
2023,03,30,08,11,2.40
2023,03,30,08,12,2.40
2023,03,30,08,13,2.40
2023,03,30,08,14,2.50
2023,03,30,08,15,2.50
2023,03,30,08,16,2.60
2023,03,30,08,17,2.60
2023,03,30,08,18,2.70
2023,03,30,08,19,2.80
2023,03,30,08,20,2.80
2023,03,30,08,21,2.90
2023,03,30,08,22,2.90
2023,03,30,08,23,3.00
2023,03,30,08,24,3.00
2023,03,30,08,25,3.10
2023,03,30,08,26,3.20
2023,03,30,08,27,3.20
2023,03,30,08,28,3.20
2023,03,30,08,29,3.30
2023,03,30,08,30,3.40
2023,03,30,08,31,3.50
2023,03,30,08,32,3.70
2023,03,30,08,33,3.80
2023,03,30,08,34,3.90
2023,03,30,08,35,4.00
2023,03,30,08,36,4.10
2023,03,30,08,37,4.20
2023,03,30,08,38,4.40
2023,03,30,08,39,4.60
2023,03,30,08,40,4.80
2023,03,30,08,41,4.90
2023,03,30,08,42,5.10
2023,03,30,08,43,5.20
2023,03,30,08,44,5.40
2023,03,30,08,45,5.60
2023,03,30,08,46,5.70
2023,03,30,08,47,5.90
2023,03,30,08,48,6.00
2023,03,30,08,49,6.20
2023,03,30,08,50,6.40
2023,03,30,08,51,6.60
2023,03,30,08,52,6.80
2023,03,30,08,53,6.90
2023,03,30,08,54,7.10
2023,03,30,08,55,7.30
2023,03,30,08,56,7.40
2023,03,30,08,57,7.50
2023,03,30,08,58,7.70
2023,03,30,08,59,7.80
2023,03,30,09,00,7.90
2023,03,30,09,01,8.00
2023,03,30,09,02,8.10
2023,03,30,09,03,8.10
2023,03,30,09,04,8.20
2023,03,30,09,05,8.20
2023,03,30,09,06,8.30
2023,03,30,09,07,8.40
2023,03,30,09,08,8.50
2023,03,30,09,09,8.50
2023,03,30,09,10,8.60
2023,03,30,09,11,8.60
2023,03,30,09,12,8.70
2023,03,30,09,13,8.70
2023,03,30,09,14,8.70
2023,03,30,09,15,8.70
2023,03,30,09,16,8.70
2023,03,30,09,17,8.70
2023,03,30,09,18,8.70
2023,03,30,09,19,8.70
2023,03,30,09,20,8.70
2023,03,30,09,21,8.80
2023,03,30,09,22,8.80
2023,03,30,09,23,8.90
2023,03,30,09,24,8.90
2023,03,30,09,25,9.00
2023,03,30,09,26,9.00
2023,03,30,09,27,9.10
2023,03,30,09,28,9.20
2023,03,30,09,29,9.30
2023,03,30,09,30,9.30
2023,03,30,09,31,9.40
2023,03,30,09,32,9.40
2023,03,30,09,33,9.50
2023,03,30,09,34,9.50
2023,03,30,09,35,9.50
2023,03,30,09,36,9.50
2023,03,30,09,37,9.50
2023,03,30,09,38,9.50
2023,03,30,09,39,9.40
2023,03,30,09,40,9.40
2023,03,30,09,41,9.40
2023,03,30,09,42,9.30
2023,03,30,09,43,9.40
2023,03,30,09,44,9.40
2023,03,30,09,45,9.40
2023,03,30,09,46,9.40
2023,03,30,09,47,9.40
2023,03,30,09,48,9.40
2023,03,30,09,49,9.40
2023,03,30,09,50,9.40
2023,03,30,09,51,9.40
2023,03,30,09,52,9.40
2023,03,30,09,53,9.50
2023,03,30,09,54,9.50
2023,03,30,09,55,9.60
2023,03,30,09,56,9.60
2023,03,30,09,57,9.70
2023,03,30,09,58,9.70
2023,03,30,09,59,9.80
2023,03,30,10,00,9.80
2023,03,30,10,01,10.00
2023,03,30,10,02,10.10
2023,03,30,10,03,10.10
2023,03,30,10,04,10.10
2023,03,30,10,05,10.10
2023,03,30,10,06,10.10
2023,03,30,10,07,10.10
2023,03,30,10,08,10.10
2023,03,30,10,09,10.10
2023,03,30,10,10,10.10
2023,03,30,10,11,10.10
2023,03,30,10,12,10.10
2023,03,30,10,13,10.10
2023,03,30,10,14,10.10
2023,03,30,10,15,10.10
2023,03,30,10,16,10.10
2023,03,30,10,17,10.20
2023,03,30,10,18,10.20
2023,03,30,10,19,10.20
2023,03,30,10,20,10.20
2023,03,30,10,21,10.30
2023,03,30,10,22,10.30
2023,03,30,10,23,10.30
2023,03,30,10,24,10.30
2023,03,30,10,25,10.20
2023,03,30,10,26,10.00
2023,03,30,10,27,9.90
2023,03,30,10,28,9.70
2023,03,30,10,29,9.50
2023,03,30,10,30,9.30
2023,03,30,10,31,9.20
2023,03,30,10,32,9.00
2023,03,30,10,33,8.90
2023,03,30,10,34,8.90
2023,03,30,10,35,8.90
2023,03,30,10,36,8.90
2023,03,30,10,37,8.90
2023,03,30,10,38,9.00
2023,03,30,10,39,9.00
2023,03,30,10,40,9.10
2023,03,30,10,41,9.10
2023,03,30,10,42,9.20
2023,03,30,10,43,9.20
2023,03,30,10,44,9.10
2023,03,30,10,45,9.00
2023,03,30,10,46,9.00
2023,03,30,10,47,9.00
2023,03,30,10,48,9.00
2023,03,30,10,49,9.10
2023,03,30,10,50,9.10
2023,03,30,10,51,9.10
2023,03,30,10,52,9.20
2023,03,30,10,53,9.20
2023,03,30,10,54,9.30
2023,03,30,10,55,9.40
2023,03,30,10,56,9.40
2023,03,30,10,57,9.40
2023,03,30,10,58,9.40
2023,03,30,10,59,9.30
2023,03,30,11,00,9.30
2023,03,30,11,01,9.30
2023,03,30,11,02,9.30
2023,03,30,11,03,9.30
2023,03,30,11,04,9.30
2023,03,30,11,05,9.40
2023,03,30,11,06,9.40
2023,03,30,11,07,9.30
2023,03,30,11,08,9.20
2023,03,30,11,09,9.20
2023,03,30,11,10,9.20
2023,03,30,11,11,9.20
2023,03,30,11,12,9.10
2023,03,30,11,13,9.10
2023,03,30,11,14,9.10
2023,03,30,11,15,9.20
2023,03,30,11,16,9.20
2023,03,30,11,17,9.20
2023,03,30,11,18,9.30
2023,03,30,11,19,9.30
2023,03,30,11,20,9.20
2023,03,30,11,21,9.20
2023,03,30,11,22,9.10
2023,03,30,11,23,9.10
2023,03,30,11,24,9.20
2023,03,30,11,25,9.20
2023,03,30,11,26,9.20
2023,03,30,11,27,9.30
2023,03,30,11,28,9.40
2023,03,30,11,29,9.50
2023,03,30,11,30,9.60
2023,03,30,11,31,9.60
2023,03,30,11,32,9.60
2023,03,30,11,33,9.60
2023,03,30,11,34,9.50
2023,03,30,11,35,9.50
2023,03,30,11,36,9.40
2023,03,30,11,37,9.40
2023,03,30,11,38,9.30
2023,03,30,11,39,9.30
2023,03,30,11,40,9.40
2023,03,30,11,41,9.50
2023,03,30,11,42,9.60
2023,03,30,11,43,9.70
2023,03,30,11,44,9.80
2023,03,30,11,45,9.80
2023,03,30,11,46,9.80
2023,03,30,11,47,9.80
2023,03,30,11,48,9.80
2023,03,30,11,49,9.70
2023,03,30,11,50,9.70
2023,03,30,11,51,9.70
2023,03,30,11,52,9.60
2023,03,30,11,53,9.60
2023,03,30,11,54,9.60
2023,03,30,11,55,9.70
2023,03,30,11,56,9.80
2023,03,30,11,57,9.90
2023,03,30,11,58,9.90
2023,03,30,11,59,9.80
2023,03,30,12,00,9.90
2023,03,30,12,01,10.00
2023,03,30,12,02,10.10
2023,03,30,12,03,10.10
2023,03,30,12,04,10.20
2023,03,30,12,05,10.20
2023,03,30,12,06,10.20
2023,03,30,12,07,10.20
2023,03,30,12,08,10.00
2023,03,30,12,09,10.00
2023,03,30,12,10,9.90
2023,03,30,12,11,10.00
2023,03,30,12,12,10.00
2023,03,30,12,13,10.10
2023,03,30,12,14,10.20
2023,03,30,12,15,10.20
2023,03,30,12,16,10.30
2023,03,30,12,17,10.30
2023,03,30,12,18,10.40
2023,03,30,12,19,10.50
2023,03,30,12,20,10.50
2023,03,30,12,21,10.60
2023,03,30,12,22,10.60
2023,03,30,12,23,10.60
2023,03,30,12,24,10.60
2023,03,30,12,25,10.50
2023,03,30,12,26,10.50
2023,03,30,12,27,10.50
2023,03,30,12,28,10.60
2023,03,30,12,29,10.60
2023,03,30,12,30,10.70
2023,03,30,12,31,10.60
2023,03,30,12,32,10.60
2023,03,30,12,33,10.50
2023,03,30,12,34,10.50
2023,03,30,12,35,10.50
2023,03,30,12,36,10.60
2023,03,30,12,37,10.70
2023,03,30,12,38,10.80
2023,03,30,12,39,10.80
2023,03,30,12,40,10.80
2023,03,30,12,41,10.90
2023,03,30,12,42,11.00
2023,03,30,12,43,11.00
2023,03,30,12,44,11.00
2023,03,30,12,45,10.90
2023,03,30,12,46,10.80
2023,03,30,12,47,10.80
2023,03,30,12,48,10.80
2023,03,30,12,49,10.70
2023,03,30,12,50,10.70
2023,03,30,12,51,10.80
2023,03,30,12,52,10.90
2023,03,30,12,53,10.90
2023,03,30,12,54,10.90
2023,03,30,12,55,10.90
2023,03,30,12,56,10.90
2023,03,30,12,57,11.10
2023,03,30,12,58,11.20
2023,03,30,12,59,11.30
2023,03,30,13,00,11.40
2023,03,30,13,01,11.40
2023,03,30,13,02,11.50
2023,03,30,13,03,11.60
2023,03,30,13,04,11.60
2023,03,30,13,05,11.50
2023,03,30,13,06,11.60
2023,03,30,13,07,11.60
2023,03,30,13,08,11.60
2023,03,30,13,09,11.60
2023,03,30,13,10,11.60
2023,03,30,13,11,11.60
2023,03,30,13,12,11.60
2023,03,30,13,13,11.60
2023,03,30,13,14,11.60
2023,03,30,13,15,11.60
2023,03,30,13,16,11.50
2023,03,30,13,17,11.50
2023,03,30,13,18,11.50
2023,03,30,13,19,11.60
2023,03,30,13,20,11.50
2023,03,30,13,21,11.60
2023,03,30,13,22,11.60
2023,03,30,13,23,11.70
2023,03,30,13,24,11.60
2023,03,30,13,25,11.50
2023,03,30,13,26,11.50
2023,03,30,13,27,11.50
2023,03,30,13,28,11.50
2023,03,30,13,29,11.50
2023,03,30,13,30,11.50
2023,03,30,13,31,11.40
2023,03,30,13,32,11.40
2023,03,30,13,33,11.40
2023,03,30,13,34,11.40
2023,03,30,13,35,11.50
2023,03,30,13,36,11.60
2023,03,30,13,37,11.80
2023,03,30,13,38,11.90
2023,03,30,13,39,12.10
2023,03,30,13,40,12.30
2023,03,30,13,41,12.40
2023,03,30,13,42,12.50
2023,03,30,13,43,12.60
2023,03,30,13,44,12.70
2023,03,30,13,45,12.80
2023,03,30,13,46,12.90
2023,03,30,13,47,13.00
2023,03,30,13,48,13.00
2023,03,30,13,49,13.10
2023,03,30,13,50,13.10
2023,03,30,13,51,13.10
2023,03,30,13,52,13.10
2023,03,30,13,53,13.00
2023,03,30,13,54,13.10
2023,03,30,13,55,13.10
2023,03,30,13,56,13.10
2023,03,30,13,57,13.20
2023,03,30,13,58,13.20
2023,03,30,13,59,13.30
2023,03,30,14,00,13.30
2023,03,30,14,01,13.40
2023,03,30,14,02,13.40
2023,03,30,14,03,13.50
2023,03,30,14,04,13.50
2023,03,30,14,05,13.50
2023,03,30,14,06,13.40
2023,03,30,14,07,13.20
2023,03,30,14,08,13.20
2023,03,30,14,09,13.20
2023,03,30,14,10,13.20
2023,03,30,14,11,13.30
2023,03,30,14,12,13.30
2023,03,30,14,13,13.40
2023,03,30,14,14,13.50
2023,03,30,14,15,13.60
2023,03,30,14,16,13.70
2023,03,30,14,17,13.80
2023,03,30,14,18,13.90
2023,03,30,14,19,13.90
2023,03,30,14,20,14.00
2023,03,30,14,21,14.10
2023,03,30,14,22,14.10
2023,03,30,14,23,14.00
2023,03,30,14,24,13.90
2023,03,30,14,25,13.80
2023,03,30,14,26,13.80
2023,03,30,14,27,13.80
2023,03,30,14,28,13.80
2023,03,30,14,29,13.80
2023,03,30,14,30,13.80
2023,03,30,14,31,13.80
2023,03,30,14,32,13.80
2023,03,30,14,33,13.80
2023,03,30,14,34,13.80
2023,03,30,14,35,13.80
2023,03,30,14,36,13.80
2023,03,30,14,37,13.70
2023,03,30,14,38,13.60
2023,03,30,14,39,13.60
2023,03,30,14,40,13.50
2023,03,30,14,41,13.50
2023,03,30,14,42,13.50
2023,03,30,14,43,13.40
2023,03,30,14,44,13.40
2023,03,30,14,45,13.30
2023,03,30,14,46,13.30
2023,03,30,14,47,13.30
2023,03,30,14,48,13.30
2023,03,30,14,49,13.40
2023,03,30,14,50,13.40
2023,03,30,14,51,13.50
2023,03,30,14,52,13.60
2023,03,30,14,53,13.60
2023,03,30,14,54,13.50
2023,03,30,14,55,13.40
2023,03,30,14,56,13.40
2023,03,30,14,57,13.30
2023,03,30,14,58,13.30
2023,03,30,14,59,13.30
2023,03,30,15,00,13.30
2023,03,30,15,01,13.30
2023,03,30,15,02,13.40
2023,03,30,15,03,13.40
2023,03,30,15,04,13.40
2023,03,30,15,05,13.40
2023,03,30,15,06,13.40
2023,03,30,15,07,13.40
2023,03,30,15,08,13.30
2023,03,30,15,09,13.30
2023,03,30,15,10,13.30
2023,03,30,15,11,13.20
2023,03,30,15,12,13.10
2023,03,30,15,13,13.10
2023,03,30,15,14,13.10
2023,03,30,15,15,13.10
2023,03,30,15,16,13.10
2023,03,30,15,17,13.10
2023,03,30,15,18,13.10
2023,03,30,15,19,13.10
2023,03,30,15,20,13.00
2023,03,30,15,21,13.00
2023,03,30,15,22,12.90
2023,03,30,15,23,12.90
2023,03,30,15,24,12.90
2023,03,30,15,25,12.90
2023,03,30,15,26,12.90
2023,03,30,15,27,13.00
2023,03,30,15,28,13.10
2023,03,30,15,29,13.10
2023,03,30,15,30,13.20
2023,03,30,15,31,13.30
2023,03,30,15,32,13.30
2023,03,30,15,33,13.40
2023,03,30,15,34,13.50
2023,03,30,15,35,13.50
2023,03,30,15,36,13.60
2023,03,30,15,37,13.70
2023,03,30,15,38,13.80
2023,03,30,15,39,13.80
2023,03,30,15,40,13.80
2023,03,30,15,41,13.80
2023,03,30,15,42,13.80
2023,03,30,15,43,13.70
2023,03,30,15,44,13.70
2023,03,30,15,45,13.60
2023,03,30,15,46,13.50
2023,03,30,15,47,13.40
2023,03,30,15,48,13.30
2023,03,30,15,49,13.30
2023,03,30,15,50,13.30
2023,03,30,15,51,13.30
2023,03,30,15,52,13.30
2023,03,30,15,53,13.30
2023,03,30,15,54,13.30
2023,03,30,15,55,13.40
2023,03,30,15,56,13.30
2023,03,30,15,57,13.30
2023,03,30,15,58,13.30
2023,03,30,15,59,13.30
2023,03,30,16,00,13.40
2023,03,30,16,01,13.40
2023,03,30,16,02,13.40
2023,03,30,16,03,13.40
2023,03,30,16,04,13.40
2023,03,30,16,05,13.40
2023,03,30,16,06,13.30
2023,03,30,16,07,13.20
2023,03,30,16,08,13.10
2023,03,30,16,09,13.20
2023,03,30,16,10,13.20
2023,03,30,16,11,13.20
2023,03,30,16,12,13.10
2023,03,30,16,13,13.10
2023,03,30,16,14,13.20
2023,03,30,16,15,13.20
2023,03,30,16,16,13.20
2023,03,30,16,17,13.20
2023,03,30,16,18,13.10
2023,03,30,16,19,13.00
2023,03,30,16,20,13.00
2023,03,30,16,21,13.10
2023,03,30,16,22,13.10
2023,03,30,16,23,13.10
2023,03,30,16,24,13.00
2023,03,30,16,25,12.90
2023,03,30,16,26,12.90
2023,03,30,16,27,12.80
2023,03,30,16,28,12.80
2023,03,30,16,29,12.90
2023,03,30,16,30,12.90
2023,03,30,16,31,12.90
2023,03,30,16,32,13.00
2023,03,30,16,33,13.00
2023,03,30,16,34,13.10
2023,03,30,16,35,13.20
2023,03,30,16,36,13.10
2023,03,30,16,37,13.10
2023,03,30,16,38,13.10
2023,03,30,16,39,13.10
2023,03,30,16,40,13.10
2023,03,30,16,41,13.10
2023,03,30,16,42,13.00
2023,03,30,16,43,12.90
2023,03,30,16,44,12.80
2023,03,30,16,45,12.80
2023,03,30,16,46,12.70
2023,03,30,16,47,12.70
2023,03,30,16,48,12.70
2023,03,30,16,49,12.70
2023,03,30,16,50,12.70
2023,03,30,16,51,12.80
2023,03,30,16,52,12.80
2023,03,30,16,53,12.80
2023,03,30,16,54,12.90
2023,03,30,16,55,12.90
2023,03,30,16,56,12.90
2023,03,30,16,57,12.80
2023,03,30,16,58,12.70
2023,03,30,16,59,12.70
2023,03,30,17,00,12.60
2023,03,30,17,01,12.60
2023,03,30,17,02,12.50
2023,03,30,17,03,12.60
2023,03,30,17,04,12.60
2023,03,30,17,05,12.60
2023,03,30,17,06,12.60
2023,03,30,17,07,12.60
2023,03,30,17,08,12.50
2023,03,30,17,09,12.50
2023,03,30,17,10,12.50
2023,03,30,17,11,12.40
2023,03,30,17,12,12.40
2023,03,30,17,13,12.40
2023,03,30,17,14,12.40
2023,03,30,17,15,12.30
2023,03,30,17,16,12.30
2023,03,30,17,17,12.30
2023,03,30,17,18,12.30
2023,03,30,17,19,12.30
2023,03,30,17,20,12.30
2023,03,30,17,21,12.20
2023,03,30,17,22,12.20
2023,03,30,17,23,12.20
2023,03,30,17,24,12.20
2023,03,30,17,25,12.20
2023,03,30,17,26,12.20
2023,03,30,17,27,12.10
2023,03,30,17,28,12.10
2023,03,30,17,29,12.10
2023,03,30,17,30,12.10
2023,03,30,17,31,12.00
2023,03,30,17,32,12.00
2023,03,30,17,33,12.00
2023,03,30,17,34,12.00
2023,03,30,17,35,12.10
2023,03,30,17,36,12.10
2023,03,30,17,37,12.10
2023,03,30,17,38,12.10
2023,03,30,17,39,12.10
2023,03,30,17,40,12.10
2023,03,30,17,41,12.00
2023,03,30,17,42,12.00
2023,03,30,17,43,12.00
2023,03,30,17,44,12.00
2023,03,30,17,45,12.10
2023,03,30,17,46,12.10
2023,03,30,17,47,12.10
2023,03,30,17,48,12.10
2023,03,30,17,49,12.00